This demonstration page uses our WeatherBlox Daily Observations layout. Learn more.

Left ArrowRight Arrow

39.08367, -84.50855

Hourly Observations for April 23, 2015

Temp ( °F °C ) Dew Point ( °F °C ) Humidity (%) Winds ( mph kmh ) Pressure ( in mb ) Visibility ( mi km ) Precip ( " mm )
12:53 am 00:53 Clear 44 6.7 31 -0.6 60 60 SW 3 6 29.95 1014 10 16.0934 0 0
1:53 am 01:53 Clear 42 5.6 27 -2.8 55 55 WNW 6 9 29.96 1015 10 16.0934 0 0
2:53 am 02:53 Clear 37 2.8 34 1.1 89 89 Calm 29.96 1014 10 16.0934 0 0
3:53 am 03:53 Clear 35 1.7 33 0.6 93 93 Calm 29.97 1015 10 16.0934 0 0
4:53 am 04:53 Clear 33 0.6 32 0 96 96 SSW 7 11 29.98 1015 10 16.0934 0 0
5:53 am 05:53 Clear 36 2.2 31 -0.6 82 82 S 5 7 29.98 1015 10 16.0934 0 0
6:53 am 06:53 Sunny 34 1.1 29 -1.7 82 82 S 6 9 29.99 1016 10 16.0934 0 0
7:53 am 07:53 Sunny 37 2.8 30 -1.1 76 76 SE 3 6 30.01 1016 10 16.0934 0 0
8:53 am 08:53 Sunny 44 6.7 27 -2.8 51 51 W 12 19 30.01 1016 10 16.0934 0 0
9:53 am 09:53 Sunny 47 8.3 27 -2.8 46 46 WNW 10 17 30.02 1017 10 16.0934 0 0
10:53 am 10:53 Sunny 50 10 24 -4.4 36 36 W 10 17 30.03 1017 10 16.0934 0 0
11:53 am 11:53 Sunny 52 11.1 24 -4.4 34 34 WNW 16 26 30.04 1017 10 16.0934 0 0
12:53 pm 12:53 Sunny 53 11.7 26 -3.3 35 35 W 17 28 30.03 1017 10 16.0934 0 0
1:53 pm 13:53 Mostly Sunny 54 12.2 27 -2.8 35 35 W 17 28 30.03 1017 10 16.0934 0 0
2:53 pm 14:53 Sunny 55 12.8 26 -3.3 33 33 W 15 24 30.03 1017 10 16.0934 0 0
3:53 pm 15:53 Sunny 55 12.8 26 -3.3 33 33 W 15 24 30.01 1016 10 16.0934 0 0
4:53 pm 16:53 Sunny 55 12.8 23 -5 29 29 NW 15 24 30.01 1016 10 16.0934 0 0
5:53 pm 17:53 Sunny 55 12.8 22 -5.6 28 28 W 17 28 30.02 1017 10 16.0934 0 0
6:53 pm 18:53 Sunny 54 12.2 19 -7.2 25 25 NW 14 22 30.03 1017 10 16.0934 0 0
7:53 pm 19:53 Sunny 53 11.7 19 -7.2 26 26 WNW 13 20 30.04 1017 10 16.0934 0 0
8:53 pm 20:53 Clear 50 10 20 -6.7 30 30 NNW 7 11 30.05 1018 10 16.0934 0 0
9:53 pm 21:53 Clear 49 9.4 20 -6.7 32 32 WNW 5 7 30.06 1018 10 16.0934 0 0
10:53 pm 22:53 Clear 47 8.3 22 -5.6 37 37 NW 5 7 30.08 1019 10 16.0934 0 0
11:53 pm 23:53 Clear 39 3.9 32 0 76 76 NE 6 9 30.09 1019 10 16.0934 0 0

Powered by AerisWeather